Location: Flensburg
(54.6357°N, 9.5142°E)
Time: 02:15:32
(UTC+01:00)

ISS - Pass Details

Date: 11 January 2018
Orbit: 401 x 406 km, 51.6° (Epoch: 17 January)

Event Time Altitude Azimuth Distance (km) Brightness Sun altitude
Exits shadow 05:42:28 24° 143° (SE) 900 -1.7 -24.4°
Drops below altitude 10° 05:44:04 10° 126° (SE) 1,464 -0.3 -24.2°
Sets 05:46:13 0° 118° (ESE) 2,324 1.1 -23.9°
